Cloud_Cover
0 0 0 0 0 0 0 0 0 0 4 5 5 46 87 94 5 16 5 36 27 20 92 100 100 100 100 100 100 100 100 100 100 80 12 23 5 5 14 5 84 55 100
0 0 0 0 0 0 0 0 0 0 0 0 9 16 5 5 5 5 5 54 43 96 100 100 100 100 100 100 100 100 100 100 100 100 93 85 7 5 11 74 86 100 100
0 0 0 0 0 0 0 0 0 0 0 1 5 57 78 55 6 20 52 30 99 77 80 78 100 100 100 100 100 100 100 100 100 100 100 100 38 5 6 37 100 100 100
0 0 0 0 0 0 0 0 0 0 4 5 5 14 100 73 28 98 100 91 86 93 94 100 100 100 100 100 100 100 100 100 100 100 100 98 97 23 44 49 100 100 100
0 0 0 0 0 0 0 0 0 0 4 5 18 56 92 100 46 58 67 56 86 82 100 100 100 100 100 100 100 100 100 100 100 100 100 100 100 89 21 24 100 100 100
0 0 0 0 0 0 0 0 0 1 4 0 7 56 100 100 70 5 91 33 88 100 100 100 100 100 100 100 100 100 100 100 100 100 100 100 100 30 100 97 100 100 100
0 0 0 0 0 0 0 0 0 0 0 0 0 3 22 52 100 100 25 5 100 93 100 100 100 100 100 100 100 100 100 100 100 100 100 100 100 49 81 99 99 100 100
0 0 0 0 0 0 0 0 0 0 0 0 1 0 4 38 83 98 54 7 99 99 100 100 100 100 100 100 100 100 100 100 100 100 100 100 100 72 53 47 100 100 98
0 0 0 0 0 0 0 0 0 0 0 0 0 0 0 0 4 30 99 99 100 98 100 100 100 100 100 100 100 100 100 100 100 100 100 100 77 74 12 92 100 100 100
0 0 0 0 0 0 0 0 0 0 0 0 0 0 0 5 0 5 89 100 96 100 100 100 100 100 100 100 100 100 100 100 100 100 100 100 98 100 54 100 94 100 94
0 0 0 0 0 0 0 0 0 0 0 0 0 0 0 2 2 2 90 96 95 100 100 100 100 100 100 100 99 100 100 100 100 100 100 99 100 100 63 95 100 100 65
0 0 0 0 0 0 0 0 0 0 0 0 0 2 5 0 9 14 5 50 83 94 100 100 100 100 100 100 97 100 100 100 100 100 100 100 100 98 84 89 100 94 46
0 0 0 0 0 0 0 0 0 3 0 0 0 0 0 4 5 5 5 42 100 57 100 100 100 100 95 71 100 100 100 100 100 100 100 100 100 88 100 88 89 66 90
0 0 0 0 0 0 0 0 0 0 0 0 0 0 0 5 5 5 5 12 100 100 100 100 100 100 100 97 91 88 100 100 100 100 100 100 100 100 100 67 88 83 5
0 0 0 0 0 0 0 0 0 0 0 0 0 1 4 5 0 1 5 7 93 100 100 100 100 100 98 96 82 98 100 100 100 100 100 100 100 100 100 99 85 83 13
0 0 0 0 0 0 2 0 0 0 1 0 0 0 0 3 5 5 5 5 56 100 100 100 100 100 100 100 100 100 100 100 100 100 100 100 100 100 100 100 79 22 7
0 0 0 0 0 3 5 5 4 0 0 0 5 4 5 5 5 5 12 5 11 89 100 100 100 100 100 100 100 100 100 100 100 100 100 100 100 100 65 11 8 6 9
0 0 0 0 0 0 5 5 50 19 5 0 0 4 6 5 5 5 17 21 56 6 100 100 100 100 100 100 100 100 100 100 100 100 100 100 100 93 13 17 16 13 13
0 0 0 0 0 0 2 14 25 92 4 36 0 1 66 5 5 31 5 76 86 83 100 100 100 100 100 100 100 100 100 100 100 100 100 100 100 76 42 56 51 7 43
0 0 0 0 0 0 0 4 44 26 44 5 4 0 0 17 32 6 5 93 72 91 100 100 100 100 100 100 100 100 100 100 100 100 100 100 100 100 87 83 63 49 87
0 0 0 0 0 0 0 0 1 15 14 5 5 3 5 5 5 5 5 91 98 96 100 100 100 100 100 100 100 100 100 100 100 100 100 100 100 100 100 100 98 100 100
0 0 0 0 0 0 0 0 0 2 5 5 5 7 5 5 5 5 5 56 88 53 94 100 100 100 100 100 100 100 100 100 100 100 100 100 100 100 100 100 100 100 100
0 0 0 0 0 2 0 0 0 5 5 5 6 39 17 5 5 5 5 46 89 27 10 90 100 100 100 100 100 100 100 100 100 100 100 100 100 100 100 100 100 100 100
0 0 0 0 0 0 5 5 5 20 5 5 25 60 7 5 5 5 5 19 71 5 5 21 99 100 100 100 100 100 100 100 100 100 100 100 100 100 100 100 100 100 100
0 0 0 5 5 5 5 6 5 5 5 5 5 39 84 32 11 5 5 5 10 5 5 22 31 100 100 100 100 100 100 100 100 100 100 100 100 100 100 100 100 100 97
0 0 0 5 5 8 11 36 5 16 58 8 21 56 77 61 22 13 20 5 6 25 5 5 5 43 100 100 100 100 100 100 100 100 100 100 100 100 100 100 100 100 100